XML Sitemap

This is a XML Sitemap which is supposed to be processed by search engines which follow the XML Sitemap standard like Ask.com, Bing, Google and Yahoo.
It was generated using the WordPress content management system and the Google Sitemap Generator Plugin by Arne Brachhold.
You can find more information about XML sitemaps on sitemaps.org and Google's list of sitemap programs.

URLPriorityChange frequencyLast modified (GMT)
https://100frames.com/32-december-2019-calendar-printable-large/50%Daily2019-03-10 18:50
https://100frames.com/31-june-calendar-2019-pdf/50%Daily2019-03-10 18:50
https://100frames.com/34-blank-september-monthly-calendar/50%Daily2019-03-10 18:47
https://100frames.com/32-classroom-calendar-and-weather-chart-printable/50%Daily2019-03-10 18:45
https://100frames.com/34-lesson-plan-calendar-printable/50%Daily2019-03-10 18:45
https://100frames.com/35-printable-monthly-calendars-2019-and-2019/50%Daily2019-03-10 18:43
https://100frames.com/30-short-timers-calendar-printable/50%Daily2019-03-10 18:40
https://100frames.com/35-printable-calendar-2019-with-holidays-us/50%Daily2019-03-10 18:41
https://100frames.com/35-desk-calendar-pad/50%Daily2019-03-10 18:38
https://100frames.com/33-large-print-calendar-2019-printable-3-2-653-4150236/50%Daily2019-03-10 18:35
https://100frames.com/30-free-printable-calendar-watermark/50%Daily2019-03-10 18:35
https://100frames.com/24-august-2019-printable-and-colorable-calendar/50%Daily2019-03-10 18:33
https://100frames.com/14-large-september-2019-calendar/50%Daily2019-03-10 18:31
https://100frames.com/33-pregnancy-weekly-calendar-printable/50%Daily2019-03-10 18:31
https://100frames.com/34-alphabet-island-printable-calendar/50%Daily2019-03-10 18:30
https://100frames.com/30-calendar-august-2019-template/50%Daily2019-03-10 18:27
https://100frames.com/31-weekly-calendar-august-2019/50%Daily2019-03-10 18:25
https://100frames.com/31-free-printable-calendar-big-boxes/50%Daily2019-03-10 18:26
https://100frames.com/31-august-calendar-2019-template/50%Daily2019-03-10 18:23
https://100frames.com/31-online-calendar-august-2019/50%Daily2019-03-10 18:21
https://100frames.com/30-september-2019-calendar-printable-a4/50%Daily2019-03-10 18:21
https://100frames.com/34-calendar-printable-large-box/50%Daily2019-03-10 18:20
https://100frames.com/14-2019-calendar-printable-nz/50%Daily2019-03-10 18:18
https://100frames.com/32-tracing-printables-weekly-calendar/50%Daily2019-03-10 18:16
https://100frames.com/33-calendar-2019-printable-for-malaysia/50%Daily2019-03-10 18:16
https://100frames.com/32-asu-calendar-2019/50%Daily2019-03-10 18:14
https://100frames.com/33-december-2019-calendar-editable/50%Daily2019-03-10 18:12
https://100frames.com/32-november-coloring-calendar-printable/50%Daily2019-03-10 18:10
https://100frames.com/33-august-to-august-calendar-printable/50%Daily2019-03-10 18:09
https://100frames.com/30-fathers-day-2019-date/50%Daily2019-03-10 18:07
https://100frames.com/34-2009-monthly-calendar-printable/50%Daily2019-03-10 18:05
https://100frames.com/31-june-blank-2019-calendar-printable/50%Daily2019-03-10 18:05
https://100frames.com/30-november-2019-printable-calendar-com/50%Daily2019-03-10 18:02
https://100frames.com/35-accounting-calendar-2019-2020/50%Daily2019-03-10 18:01
https://100frames.com/34-2019-calendar-hong-kong-printable/50%Daily2019-03-10 18:00
https://100frames.com/33-printable-4-month-calendars/50%Daily2019-03-10 17:57
https://100frames.com/30-printable-calendar-2019-with-notes/50%Daily2019-03-10 17:55
https://100frames.com/34-june-2019-calendar-print-out/50%Daily2019-03-10 17:53
https://100frames.com/30-cute-free-printable-2019-calendar/50%Daily2019-03-10 17:50
https://100frames.com/35-september-calendar-2019/50%Daily2019-03-10 17:50
https://100frames.com/34-resorts-world-casino-calendar/50%Daily2019-03-10 17:48
https://100frames.com/32-pdx-kids-calendar/50%Daily2019-03-10 17:45
https://100frames.com/34-6-month-per-page-printable-calendar/50%Daily2019-03-10 17:45
https://100frames.com/30-calendar-fillable-printable/50%Daily2019-03-10 17:43
https://100frames.com/29-www-free-printable-com-calendar/50%Daily2019-03-10 17:41
https://100frames.com/31-calendar-pages-2019/50%Daily2019-03-10 17:41
https://100frames.com/32-wellesley-school-calendar/50%Daily2019-03-10 17:39
https://100frames.com/33-tsum-tsum-printable-calendar-sheets/50%Daily2019-03-10 17:36
https://100frames.com/34-free-calendar-pages-2019/50%Daily2019-03-10 17:36
https://100frames.com/35-childrens-advent-calendar-printable/50%Daily2019-03-10 17:36
https://100frames.com/35-small-printable-november-calendar/50%Daily2019-03-10 17:33
https://100frames.com/32-printable-training-calendar/50%Daily2019-03-10 17:31
https://100frames.com/34-12-long-weekends-for-malaysia-in-2019/50%Daily2019-03-10 17:31
https://100frames.com/35-printable-advent-calendar-prayers/50%Daily2019-03-10 17:28
https://100frames.com/31-october-2019-birth-club/50%Daily2019-03-10 17:25
https://100frames.com/33-19-nov/50%Daily2019-03-10 17:25
https://100frames.com/32-free-printable-calendars-for-teachers/50%Daily2019-03-10 17:23
https://100frames.com/33-june-month-calendar-2019-printable/50%Daily2019-03-10 17:21
https://100frames.com/35-cize-workout-calendar/50%Daily2019-03-10 17:20
https://100frames.com/24-free-2019-monthly-printable-calendars/50%Daily2019-03-10 17:18
https://100frames.com/32-may-2019-blank-printable-calendar/50%Daily2019-03-10 17:17
https://100frames.com/21-2019-printable-yearly-calendar-with-canadian-holidays/50%Daily2019-03-10 17:15
https://100frames.com/34-printable-5-month-calendar/50%Daily2019-03-10 17:15
https://100frames.com/34-calendar-book-printable/50%Daily2019-03-10 17:12
https://100frames.com/33-calendar-2019-printable-monthly/50%Daily2019-03-10 17:10
https://100frames.com/33-12-month-calendar-template/50%Daily2019-03-10 17:10
https://100frames.com/34-the-cottage-market-free-printable-calendar/50%Daily2019-03-10 17:08
https://100frames.com/34-gaston-county-school-calendar/50%Daily2019-03-10 17:05
https://100frames.com/35-september-to-june-printable-calendar/50%Daily2019-03-10 17:04
https://100frames.com/32-july-printable-calendar-2019-with-holidays/50%Daily2019-03-10 17:02
https://100frames.com/30-free-printable-appointment-calendar-weekly/50%Daily2019-03-10 17:00
https://100frames.com/32-where-to-create-a-printable-master-calendar/50%Daily2019-03-10 16:59
https://100frames.com/32-owl-calendar-2019-printable/50%Daily2019-03-10 16:57
https://100frames.com/34-calendar-page-for-august-2019/50%Daily2019-03-10 16:55
https://100frames.com/34-free-printable-june-2019-calendar-cute/50%Daily2019-03-10 16:55
https://100frames.com/32-worksheetworks-calendar-printable/50%Daily2019-03-10 16:52
https://100frames.com/31-2019august-calendar-printable/50%Daily2019-03-10 16:50
https://100frames.com/33-blank-june-calendar-printable/50%Daily2019-03-10 16:50
https://100frames.com/33-free-december-2019-calendar/50%Daily2019-03-10 16:47
https://100frames.com/32-2019-18-academic-calendar-printable/50%Daily2019-03-10 16:46
https://100frames.com/30-calender-print-outs/50%Daily2019-03-10 16:45
https://100frames.com/30-free-printable-calendars-2019-memo/50%Daily2019-03-10 16:42
https://100frames.com/30-february-2019-calendar-printable-bullet-journal/50%Daily2019-03-10 16:41
https://100frames.com/30-printable-2019-monthly-calendar-large/50%Daily2019-03-10 16:40
https://100frames.com/34-free-printable-january-2019-calendar-pdf/50%Daily2019-03-10 16:40
https://100frames.com/31-printable-catholic-advent-calendar-2019/50%Daily2019-03-10 16:38
https://100frames.com/19-calendar-with-week-numbers-2019-printable/50%Daily2019-03-10 16:36
https://100frames.com/32-waterford-school-calendar/50%Daily2019-03-10 16:37
https://100frames.com/30-cool-free-printable-calendar-2019/50%Daily2019-03-10 16:33
https://100frames.com/31-blank-calendar-grid-printable-and-customizable/50%Daily2019-03-10 16:31
https://100frames.com/34-pretty-printable-november-2019-calendar/50%Daily2019-03-10 16:31
https://100frames.com/35-printable-monthly-spiritual-calendar/50%Daily2019-03-10 16:30
https://100frames.com/34-2019-2019-monthly-school-calendar-template-printable/50%Daily2019-03-10 16:28
https://100frames.com/19-how-accurate-is-the-chinese-calendar/50%Daily2019-03-10 16:26
https://100frames.com/33-february-calendar-printable-free/50%Daily2019-03-10 16:26
https://100frames.com/34-i-mom-calendar-printable/50%Daily2019-03-10 16:25
https://100frames.com/34-cfisd-calendar-2019/50%Daily2019-03-10 16:23
https://100frames.com/32-september-printable-calendar-2019-imom/50%Daily2019-03-10 16:20
https://100frames.com/34-february-2019-blank-calendar-template/50%Daily2019-03-10 16:20
https://100frames.com/31-print-calendar/50%Daily2019-03-10 16:17
https://100frames.com/33-january-2019-small-printable-calendar/50%Daily2019-03-10 16:15
https://100frames.com/31-insanity-max-calendar/50%Daily2019-03-10 16:15
https://100frames.com/34-uk-yearly-calendar-2019-printable/50%Daily2019-03-10 16:13
https://100frames.com/31-dia-de-los-muertos-mexico-city/50%Daily2019-03-10 16:10
https://100frames.com/34-printable-monthly-2019-calendar-pdf/50%Daily2019-03-10 16:10
https://100frames.com/35-calendar-template-for-july-2019/50%Daily2019-03-10 16:07
https://100frames.com/35-free-monthly-calendar-2019/50%Daily2019-03-10 16:05
https://100frames.com/34-free-printable-schedule-calendar/50%Daily2019-03-10 16:05
https://100frames.com/30-brevard-county-school-calendar/50%Daily2019-03-10 16:02
https://100frames.com/34-hijri-calendar-february-2019/50%Daily2019-03-10 16:02
https://100frames.com/33-free-printable-2019-calendar-with-holidays-cute/50%Daily2019-03-10 16:00
https://100frames.com/32-calendar-planner-template/50%Daily2019-03-10 15:58
https://100frames.com/31-lisd-calendar-2019/50%Daily2019-03-10 15:56